www.pogodaiklimat.ru

Погода и климат >> Архив погоды >> Норвегия >> Намсос аэропорт


ПОГОДА в Намсос аэропорту

  • Прогноз погоды в Намсос аэропорту
  • Монитор погоды в Намсос аэропорту

АРХИВ ПОГОДЫ в Намсос аэропорту

Время (UTC), дата Ветер
(напр.,м/с)
 
Видим.   Явления Облачность Т
(С)
Тd
(С)
f
(%)
Тe
(С)
Тes
(С)
Комфортность P
(гПа)
Po
(гПа)
Тmin
(С)
Tmax
(С)
R
(мм)
R24
(мм)
S
(см)
22 10.06 З 2
{4}
н/о н/о +9.6 +7.0 84 +8 +8 1023.3 1023.0
23 10.06 СЗ 2
{3}
н/о н/о +9.8 +6.9 82 +8 +8 1023.8 1023.5
00 11.06 СЗ 1
{6}
н/о н/о +9.4 +6.5 82 +9 +9 1024.5 1024.2
01 11.06 СВ 2
{3}
н/о н/о +8.9 +6.2 83 +7 +7 1024.7 1024.4
02 11.06
{3}
н/о н/о +9.0 +5.4 78 1025.1 1024.8
03 11.06 С 1
{2}
н/о н/о +8.8 +4.6 75 +8 +8 1025.4 1025.1
04 11.06 С 3
{4}
н/о н/о +8.7 +4.2 73 +6 +6 1025.8 1025.5
05 11.06 С 2
{4}
н/о н/о +8.9 +3.7 70 +7 +7 1026.5 1026.2
06 11.06 С 2
{5}
н/о н/о +9.4 +3.6 67 +8 +8 1027.3 1027.0 +8.7 +12.9
07 11.06 СЗ 1
{4}
н/о н/о +9.8 +3.3 64 +10 +10 1027.8 1027.5
08 11.06 СЗ 2
{5}
н/о н/о +10.1 +3.6 64 +9 +9 1028.2 1027.9
09 11.06 С 2
{4}
н/о н/о +10.9 +3.0 58 +10 +10 1028.4 1028.1
10 11.06 С 3
{6}
н/о н/о +11.5 +3.3 57 +10 +10 1028.4 1028.1
11 11.06 СЗ 2
{7}
н/о н/о +12.2 +3.2 54 +12 +12 1028.3 1028.0
12 11.06 С 3
{7}
н/о н/о +13.6 +4.5 54 +13 +13 1028.3 1028.0
13 11.06 СЗ 3
{7}
н/о н/о +13.8 +3.9 51 +13 +13 1028.1 1027.8
14 11.06 СЗ 4
{6}
н/о н/о +14.4 +3.9 49 +13 +13 1028.0 1027.7
15 11.06 СЗ 4
{6}
н/о н/о +14.5 +4.5 51 +13 +13 1028.2 1027.9
16 11.06 СЗ 4
{7}
н/о н/о +14.7 +5.0 52 +14 +14 1028.2 1027.9
17 11.06 СЗ 4
{7}
н/о н/о +14.2 +5.1 54 +13 +13 1028.2 1027.9
18 11.06 СЗ 4
{7}
н/о н/о +13.6 +5.3 57 +12 +12 1028.4 1028.1 +9.3 +15.1
19 11.06 СЗ 4
{6}
н/о н/о +12.7 +5.6 62 +11 +11 1028.6 1028.3
20 11.06 СЗ 3
{6}
н/о н/о +11.2 +5.7 69 +10 +10 1028.6 1028.3
21 11.06 З 1
{4}
н/о н/о +10.3 +5.9 74 +10 +10 1028.9 1028.6
22 11.06 С 1
{2}
н/о н/о +7.7 +5.5 86 +7 +7 1028.9 1028.6
23 11.06 С 1
{2}
н/о н/о +6.3 +5.1 92 +5 +5 1028.9 1028.6
00 12.06 штиль 0
{6}
н/о н/о +5.7 +4.8 94 +5 +5 1028.8 1028.5
01 12.06 СВ 1
{2}
н/о н/о +5.1 +4.4 95 +4 +4 1028.6 1028.3
02 12.06 СВ 2
{2}
н/о н/о +4.3 +3.7 96 +1 +1 1028.3 1028.0
03 12.06 С 2
{3}
н/о н/о +5.0 +4.7 98 +2 +2 1028.1 1027.8
04 12.06 СВ 3
{5}
н/о н/о +7.0 +6.1 94 +4 +4 1027.5 1027.2
05 12.06 СВ 5
{7}
н/о н/о +8.9 +6.4 84 +5 +5 1026.9 1026.6
06 12.06 СВ 5
{7}
н/о н/о +12.1 +6.2 67 +10 +10 1026.7 1026.4 +4.2 +13.7
07 12.06 В 6
{8}
н/о н/о +14.3 +6.7 60 +13 +13 1026.4 1026.1
08 12.06 В 5
{8}
н/о н/о +16.5 +7.7 56 +16 +16 1025.7 1025.4
09 12.06 В 5
{10}
н/о н/о +18.8 +8.5 51 +19 +19 1024.9 1024.6
10 12.06 В 5
{10}
н/о н/о +19.1 +8.7 51 +20 +20 1024.7 1024.4
11 12.06 Ю 4
{9}
н/о н/о +19.2 +8.3 49 +20 +20 1024.2 1023.9
12 12.06 ЮВ 4
{10}
н/о н/о +20.2 +8.6 47 +21 +21 комфорт 1023.5 1023.2
13 12.06 Ю 5
{8}
н/о н/о +20.5 +7.9 44 +22 +22 комфорт 1022.9 1022.6
14 12.06 ЮВ 6
{8}
н/о н/о +19.0 +6.5 44 +19 +19 1022.3 1022.0
15 12.06 В 5
{10}
н/о н/о +19.0 +6.8 45 +19 +19 1021.6 1021.3
16 12.06 В 9
{11}
н/о н/о +17.8 +5.7 45 +17 +17 1021.4 1021.1
17 12.06 ЮВ 3
{11}
н/о н/о +16.7 +4.1 43 +17 +17 1021.3 1021.1
18 12.06 В 5
{11}
н/о н/о +15.7 +3.2 43 +15 +15 1021.5 1021.2 +12.2 +21.1
19 12.06 В 5
{9}
н/о н/о +15.1 +2.6 43 +14 +14 1020.8 1020.5
20 12.06 В 3
{9}
н/о н/о +14.4 +3.9 49 +14 +14 1020.5 1020.2
21 12.06 В 4
{8}
н/о н/о +14.0 +3.5 49 +13 +13 1020.1 1019.8
22 12.06 В 7
{10}
н/о н/о +12.8 +3.8 54 +10 +10 1019.4 1019.1
23 12.06 В 7
{10}
н/о н/о +12.5 +4.2 57 +10 +10 1018.6 1018.3
00 13.06 В 6
{10}
н/о н/о +12.9 +3.3 52 +11 +11 1018.0 1017.7
01 13.06 В 8
{11}
н/о н/о +12.6 +3.6 54 +10 +10 1017.4 1017.1
02 13.06 В 9
{12}
н/о н/о +12.3 +4.1 57 +9 +9 1017.1 1016.8
03 13.06 В 9
{13}
н/о н/о +9.9 +5.1 72 +6 +6 1017.0 1016.7
04 13.06 В 10
{14}
н/о н/о +8.6 +6.1 84 +4 +4 1015.9 1015.6
05 13.06 В 10
{15}
н/о н/о +9.5 +6.9 84 +5 +5 1014.9 1014.6
06 13.06 В 10
{16}
н/о н/о +10.3 +6.8 79 +6 +6 1014.8 1014.5 +8.1 +15.7
07 13.06 В 9
{15}
н/о н/о +11.8 +6.3 69 +8 +8 1014.2 1013.9
08 13.06 В 9
{16}
н/о н/о +12.8 +6.6 66 +10 +10 1014.0 1013.7
09 13.06 В 9
{14}
н/о н/о +13.8 +7.1 64 +11 +11 1012.9 1012.6
10 13.06 В 7
{17}
н/о н/о +14.6 +6.7 59 +13 +13 1013.8 1013.5
11 13.06 В 8
{11}
н/о н/о +13.2 +8.5 73 +10 +10 1013.6 1013.3
12 13.06 В 9
{17}
н/о н/о +14.5 +7.8 64 +12 +12 1014.0 1013.7
13 13.06 В 10
{15}
н/о н/о +14.0 +8.4 69 +11 +11 1013.9 1013.6
14 13.06 В 10
{19}
н/о н/о +13.4 +9.8 79 +10 +10 1013.6 1013.3
15 13.06 В 10
{17}
н/о н/о +14.1 +9.9 76 +11 +11 1013.5 1013.2
16 13.06 В 11
{17}
н/о н/о +14.9 +9.1 68 +12 +12 1013.2 1012.9
17 13.06 В 8
{17}
н/о н/о +15.8 +9.3 65 +14 +14 1013.6 1013.3
18 13.06 В 8
{19}
н/о н/о +15.9 +9.3 65 +14 +14 1013.9 1013.6 +10.3 +16.4
19 13.06 В 7
{14}
н/о н/о +15.3 +9.2 67 +14 +14 1014.2 1013.9
20 13.06 СВ 6
{10}
н/о н/о +14.3 +8.9 70 +12 +12 1015.0 1014.7
21 13.06 В 8
{12}
н/о н/о +14.1 +8.9 71 +12 +12 1015.7 1015.4
22 13.06 В 8
{12}
н/о н/о +13.5 +8.8 73 +11 +11 1016.5 1016.2
23 13.06 В 9
{12}
н/о н/о +13.2 +8.7 74 +10 +10 1016.8 1016.5
00 14.06 В 10
{14}
н/о н/о +12.7 +8.4 75 +9 +9 1016.9 1016.6
01 14.06 В 8
{13}
н/о н/о +12.4 +8.3 76 +9 +9 1017.0 1016.7
02 14.06 В 6
{11}
н/о н/о +12.5 +8.2 75 +10 +10 1017.3 1017.0
03 14.06 В 6
{10}
н/о н/о +12.7 +8.2 74 +10 +10 1017.2 1016.9
04 14.06 В 6
{10}
н/о н/о +12.6 +8.5 76 +10 +10 1016.9 1016.6
05 14.06 В 7
{10}
н/о н/о +12.8 +8.7 76 +10 +10 1017.1 1016.8
06 14.06 В 7
{13}
н/о н/о +13.2 +8.9 75 +11 +11 1017.2 1016.9 +12.3 +16.0
07 14.06 В 4
{9}
н/о н/о +13.4 +9.1 75 +12 +12 1017.1 1016.8
08 14.06 В 5
{9}
н/о н/о +13.9 +9.8 76 +12 +12 1017.9 1017.6
09 14.06 В 6
{8}
н/о н/о +14.8 +10.2 74 +13 +13 1017.6 1017.4
10 14.06 В 6
{8}
н/о н/о +16.0 +10.3 69 +15 +15 1017.4 1017.1
11 14.06 В 6
{9}
н/о н/о +18.3 +11.9 66 +18 +18 1017.5 1017.2
12 14.06 В 7
{9}
н/о н/о +18.2 +11.1 63 +18 +18 1017.0 1016.8
13 14.06 В 6
{10}
н/о н/о +18.5 +12.0 66 +18 +18 1016.9 1016.6
14 14.06 СВ 7
{9}
н/о н/о +18.9 +11.7 63 +19 +19 1016.7 1016.5
15 14.06 В 6
{9}
н/о н/о +17.1 +11.2 68 +16 +16 1016.5 1016.2
16 14.06 В 6
{9}
н/о н/о +16.4 +11.4 72 +15 +15 1016.6 1016.3
17 14.06 В 6
{9}
н/о н/о +15.3 +11.7 79 +14 +14 1016.7 1016.4
18 14.06 В 6
{10}
н/о н/о +14.8 +12.0 83 +13 +13 1016.6 1016.3 +13.1 +19.3
19 14.06 В 6
{10}
н/о н/о +14.1 +11.8 86 +12 +12 1016.7 1016.5
20 14.06 В 7
{9}
н/о н/о +13.6 +11.8 89 +11 +11 1016.7 1016.4
21 14.06 В 3
{8}
н/о н/о +13.7 +11.6 87 +13 +13 1016.9 1016.6
22 14.06 В 4
{7}
н/о н/о +13.8 +11.3 85 +12 +12 1016.8 1016.5
23 14.06 СВ 5
{7}
н/о н/о +13.1 +11.3 89 +11 +11 1017.1 1016.8
00 15.06 СВ 5
{10}
н/о н/о +12.7 +11.4 92 +10 +10 1017.6 1017.3
01 15.06 СВ 4
{8}
н/о н/о +12.6 +11.3 92 +11 +11 1017.4 1017.1
02 15.06 СВ 4
{7}
н/о н/о +13.1 +11.0 87 +11 +11 1017.2 1016.9
03 15.06 СВ 5
{7}
н/о н/о +12.5 +11.2 92 +10 +10 1017.3 1017.0
04 15.06 СВ 4
{7}
н/о н/о +12.7 +11.1 90 +11 +11 1017.5 1017.2
05 15.06 СВ 4
{7}
н/о н/о +13.1 +11.2 88 +11 +11 1017.7 1017.4
06 15.06 СВ 3
{8}
н/о н/о +13.3 +11.9 91 +12 +12 1017.9 1017.6 +12.3 +14.7
07 15.06 СВ 3
{4}
н/о н/о +14.1 +12.0 87 +13 +13 1018.3 1018.0
08 15.06 В 2
{4}
н/о н/о +16.2 +12.2 77 +16 +16 1018.5 1018.2
09 15.06 ЮЗ 2
{2}
н/о н/о +17.6 +11.9 69 +18 +18 1018.7 1018.4
10 15.06 ЮЗ 2
{4}
н/о н/о +18.5 +12.7 69 +20 +20 1019.1 1018.8
11 15.06 ЮЗ 4
{5}
н/о н/о +17.1 +11.6 70 +17 +17 1019.3 1019.0
12 15.06 ЮЗ 4
{6}
н/о н/о +17.5 +12.0 70 +17 +17 1019.3 1019.0
13 15.06 ЮЗ 3
{6}
н/о н/о +18.6 +11.7 64 +19 +19 1019.0 1018.7
14 15.06 З 3
{5}
н/о н/о +18.2 +11.8 66 +19 +19 1018.7 1018.4
15 15.06 СЗ 3
{5}
н/о н/о +18.3 +10.9 62 +19 +19 1018.5 1018.2
16 15.06 С 4
{7}
н/о н/о +18.1 +10.2 60 +18 +18 1018.1 1017.8
17 15.06 СЗ 3
{5}
н/о н/о +18.4 +10.8 61 +19 +19 1017.9 1017.6
18 15.06 СЗ 3
{7}
н/о н/о +16.5 +10.6 68 +16 +16 1017.7 1017.4 +13.3 +19.7
19 15.06 СЗ 2
{6}
н/о н/о +16.6 +10.9 69 +17 +17 1017.4 1017.1
20 15.06 СЗ 1
{5}
н/о н/о +15.8 +11.0 73 +17 +17 1016.9 1016.6
21 15.06
{4}
н/о н/о +14.3 +11.1 81 1016.8 1016.5
22 15.06 СВ 1
{2}
н/о н/о +12.6 +10.8 89 +13 +13 1016.7 1016.4
23 15.06 С 1
{1}
н/о н/о +11.3 +10.4 94 +11 +11 1016.5 1016.2
00 16.06 штиль 0
{6}
н/о н/о +10.5 +9.7 95 +10 +10 1016.0 1015.7
01 16.06 СВ 1
{1}
н/о н/о +9.7 +9.1 96 +9 +9 1015.5 1015.2
02 16.06 СВ 2
{2}
н/о н/о +8.9 +8.5 97 +7 +7 1015.3 1015.0
03 16.06 СВ 3
{5}
н/о н/о +9.9 +9.6 98 +7 +7 1014.8 1014.5
04 16.06 В 3
{6}
н/о н/о +11.5 +10.6 94 +10 +10 1014.4 1014.1
05 16.06 СВ 5
{6}
н/о н/о +13.3 +11.4 88 +11 +11 1013.7 1013.5
06 16.06 СВ 6
{7}
н/о н/о +15.7 +12.1 79 +14 +14 1013.2 1012.9 +8.9 +16.8
07 16.06 СВ 6
{9}
н/о н/о +17.7 +13.0 74 +17 +17 1012.7 1012.5
08 16.06 СВ 6
{7}
н/о н/о +19.7 +13.4 67 +21 +21 комфорт 1012.1 1011.8
09 16.06 СВ 4
{7}
н/о н/о +21.6 +13.5 60 +24 +24 комфорт 1011.5 1011.2
10 16.06 В 2
{4}
н/о н/о +24.1 +14.2 54 +27 +27 жарко 1010.8 1010.5
11 16.06 СВ 1
{3}
н/о н/о +25.1 +13.3 48 +27 +27 жарко 1010.4 1010.1
12 16.06 ЮЗ 3
{9}
н/о н/о +23.7 +13.6 53 +26 +26 жарко 1009.9 1009.6
13 16.06 З 2
{4}
н/о н/о +25.6 +11.7 42 +27 +27 жарко 1009.5 1009.2
14 16.06 ЮЗ 2
{4}
н/о н/о +24.5 +15.2 56 +27 +27 жарко 1008.9 1008.7
15 16.06 ЮЗ 3
{5}
н/о н/о +24.3 +14.4 54 +27 +27 жарко 1009.0 1008.7
16 16.06 СЗ 4
{7}
н/о н/о +23.2 +13.1 53 +26 +26 жарко 1009.4 1009.2
17 16.06 З 2
{6}
н/о н/о +22.2 +13.6 58 +25 +25 комфорт 1009.8 1009.5
18 16.06 ЮЗ 5
{9}
н/о н/о +20.8 +12.0 57 +23 +23 комфорт 1010.0 1009.8 +15.8 +26.6
19 16.06 З 5
{8}
н/о н/о +20.3 +11.3 56 +22 +22 комфорт 1010.5 1010.2
20 16.06 З 5
{8}
н/о н/о +18.3 +11.2 63 +18 +18 1011.1 1010.8
21 16.06 З 4
{6}
н/о н/о +16.2 +11.8 75 +15 +15 1011.8 1011.5
22 16.06 ЮЗ 4
{6}
н/о н/о +14.9 +11.7 81 +14 +14 1012.3 1012.0
23 16.06 СЗ 2
{5}
н/о н/о +14.0 +11.3 84 +13 +13 1012.5 1012.2
00 17.06 З 3
{8}
н/о н/о +13.9 +11.4 85 +13 +13 1012.8 1012.5
01 17.06 З 3
{4}
н/о н/о +13.6 +11.3 86 +12 +12 1012.9 1012.6
02 17.06 З 3
{4}
н/о н/о +13.4 +11.3 87 +12 +12 1013.0 1012.7
03 17.06 З 3
{5}
н/о н/о +12.6 +11.2 91 +11 +11 1013.0 1012.7
04 17.06 З 4
{6}
н/о н/о +12.4 +11.0 91 +10 +10 1012.8 1012.5
05 17.06 ЮЗ 2
{5}
н/о н/о +11.8 +10.9 94 +11 +11 1013.0 1012.7
06 17.06 ЮЗ 5
{7}
н/о н/о +11.8 +10.9 94 +9 +9 1013.2 1012.9 +11.7 +21.3
07 17.06 ЮЗ 4
{6}
н/о н/о +12.0 +11.1 94 +10 +10 1013.5 1013.2
08 17.06 ЮЗ 5
{8}
н/о н/о +11.5 +10.6 94 +9 +9 1013.9 1013.6
09 17.06 ЮЗ 3
{6}
н/о н/о +11.5 +10.6 94 +10 +10 1014.0 1013.7
10 17.06 З 2
{4}
н/о н/о +11.9 +10.2 89 +11 +11 1014.0 1013.7
11 17.06 ЮЗ 3
{4}
н/о н/о +12.0 +10.9 93 +10 +10 1014.1 1013.8
12 17.06 ЮЗ 2
{8}
н/о н/о +13.1 +11.3 89 +12 +12 1014.1 1013.8
13 17.06 ЮЗ 3
{4}
н/о н/о +13.6 +10.8 83 +12 +12 1013.9 1013.6
14 17.06 З 2
{4}
н/о н/о +14.2 +8.8 70 +14 +14 1013.8 1013.5
15 17.06 ЮЗ 1
{3}
н/о н/о +16.1 +7.9 58 +17 +17 1013.2 1012.9
16 17.06 В 1 н/о н/о +16.2 +8.4 60 +17 +17 1012.6 1012.3
17 17.06 Ю 1
{3}
н/о н/о +16.9 +6.7 51 +18 +18 1012.0 1011.7
18 17.06 СВ 3
{4}
н/о н/о +16.6 +9.3 62 +16 +16 1011.2 1010.9 +11.2 +17.9
19 17.06 СВ 3
{5}
н/о н/о +14.9 +9.3 69 +14 +14 1010.7 1010.4
20 17.06 СВ 3
{4}
н/о н/о +14.0 +9.5 74 +13 +13 1010.5 1010.2
21 17.06 СВ 3
{4}
н/о н/о +13.6 +9.7 77 +12 +12 1010.4 1010.1
22 17.06 СВ 3
{5}
н/о н/о +12.7 +9.9 83 +11 +11 1009.8 1009.5

 

Местоположение метеостанции Намсос аэропорт (Норвегия): широта 64.47 долгота 11.57 высота над уровнем моря 2 м.

В архиве по умолчанию представлена погода в Намсос аэропорту за последнюю неделю. Архивные данные за месяц целиком и за предыдущие месяцы, начиная с января 2011 года, Вы можете получить, выбрав интересующий диапазон дат из раскрывающегося списка и нажав кнопку "Ввод!".


*Определитесь, кто Вы:
робот инопланетянин человек

Внимание! Время в таблицах - всемирное. Для получения местного времени необходимо прибавить поправку, которая равна 1 ч.

Смотрите также архив погоды в соседних городах и на ближайших метеорологических станциях:

Погода в Гартлэнде (Норвегия) (39 км)
Погода в Рорвик аэропорту (Норвегия) (45 км)
Погода в Стейнхьере (Норвегия) (50 км)
Погода на Маяке Buholmrasa (Норвегия) (54 км)
Погода в Снаса-Кжевя (Норвегия) (55 км)
Погода на Маяке Nordoyan (Норвегия) (61 км)
Погода в Намсскугане (Норвегия) (68 км)
Погода на Маяке Sklinna (Норвегия) (86 км)
Погода на Сомна-Квалёйа (Норвегия) (86 км)
Погода в Офьорде (Норвегия) (86 км)

Пояснения к столбцам:

Ветер - указаны скорость ветра в м/с - средняя за 10 мин, порывы в срок и между сроками (в фигурных скобках) и направление, откуда дует ветер: С - северный, СВ - северо-восточный, В - восточный, ЮВ - юго-восточный, Ю - южный, ЮЗ - юго-западный, З - западный, СЗ - северо-западный.
Видимость - горизонтальная дальность видимости в метрах или километрах. При видимости от 1 до 10 км при отсутствии осадков обычно наблюдается дымка, при ухудшении видимости до 1 км и менее - туман. В сухую погоду видимость может ухудшаться дымом, пылью или мглою.
Явления - указаны атмосферные явления, наблюдавшиеся в срок или в последний час перед сроком; фигурными скобками обозначены явления, наблюдавшиеся между сроками (за 1-3 часа до срока); квадратными скобками обозначены град или гололедные отложения с указанием их диаметра в мм.
Облачность - указаны через наклонную черту общая и нижняя облачность в баллах и высота нижней границы облаков в метрах; квадратными скобками обозначены формы облаков: Ci - перистые, Cs - перисто-слоистые, Cc - перисто-кучевые, Ac - высококучевые, As - высокослоистые, Sc - слоисто-кучевые, Ns - слоисто-дождевые, Cu - кучевые, Cb - кучево-дождевые. Подробнее классификацию облаков см. в Атласе облаков (PDF).
T - Температура воздуха - температура, измеренная на высоте 2 м над землей.
Td - Температура точки росы - температура, при понижении до которой содержащийся в воздухе водяной пар достигнет насыщения.
f - Относительная влажность воздуха - влажноcть воздуха, измеренная на высоте 2 м над землей.
Te - Эффективная температура - температура, которую ощущает одетый по сезону человек в тени. Характеристика душности погоды. При расчете учитывается влияние влажности воздуха и скорости ветра на теплоощущения человека.
Tes - Эффективная температура на солнце - температура, которую ощущает человек, с поправкой на солнечный нагрев. Характеристика знойности погоды. Зависит от высоты солнца над горизонтом, облачности и скорости ветра. Ночью, в пасмурную погоду, а также при ветре 12 м/с и более поправка равна нулю.
P - Атмосферное давление - приведенное к уровню моря атмосферное давление.
Po - Атмосферное давление - измеренное на уровне метеостанции атмосферное давление.
Tmin - Минимальная температура - минимум температуры воздуха на высоте 2 м над землей.
Tmax - Максимальная температура - максимум температуры воздуха на высоте 2 м над землей.
R - Количество осадков - Количество выпавших осадков за период времени, мм. При наведении курсора мыши на число - период времени, за который выпало указанное количество осадков.
R24 - Количество осадков - Количество выпавших осадков за 24 часа, мм.
S - Снежный покров - Высота снежного покрова, см. При наведении курсора мыши на число - состояние снежного покрова и степень покрытия местности в баллах.